Location: ?????
(54.9266°N, 38.5527°E)
Time: 18:47:13
(UTC+00:00)

deb REX - Pass Details

Date: 21 September 2024
Orbit: 705 x 731 km, 89.8° (Epoch: 08 October)

Event Time Altitude Azimuth Distance (km) Brightness Sun altitude
Rises 16:29:23 0° 214° (SW) 3,148 ? -9.8°
Reaches altitude 10° 16:32:03 10° 227° (SW) 2,226 ? -10.2°
Maximum altitude 16:36:08 25° 283° (WNW) 1,431 ? -10.7°
Drops below altitude 10° 16:40:13 10° 339° (NNW) 2,222 ? -11.3°
Sets 16:42:54 0° 353° (N) 3,141 ? -11.7°
